Location: Clover
(42.5131°N, 114.6874°W)
Time: 11:45:09
(UTC+00:00)

Explorer 7 - Pass Details

Date: 11 December 2025
Orbit: 433 x 550 km, 50.2° (Epoch: 13 January)

Event Time Altitude Azimuth Distance (km) Brightness Sun altitude
Rises 02:02:11 0° 239° (WSW) 2,452 11.4 -20.7°
Reaches altitude 10° 02:04:21 10° 240° (WSW) 1,566 10.2 -21.1°
Enters shadow 02:07:35 74° 256° (WSW) 461 6.4 -21.7°
